Date,TemperatureHighF,TemperatureAvgF,TemperatureLowF,DewpointHighF,DewpointAvgF,DewpointLowF,HumidityHigh,HumidityAvg,HumidityLow,PressureMaxIn,PressureMinIn,WindSpeedMaxMPH,WindSpeedAvgMPH,GustSpeedMaxMPH,PrecipitationSumIn
2013-1-3,30.1,28.0,20.6,24.8,21.7,12.1,82,77,68,30.04,29.94,19,6,19,0.00
2013-1-4,30.1,27.8,21.5,24.7,21.2,15.9,89,76,68,30.06,30.00,23,8,23,0.00
2013-1-5,21.6,20.4,19.3,16.4,15.8,15.3,85,82,80,30.06,30.05,5,2,6,0.00
2013-1-8,45.7,40.1,34.4,33.8,31.6,29.3,82,72,62,30.02,29.94,9,1,9,0.00
2013-1-9,46.8,40.4,34.2,39.9,35.5,29.5,90,83,73,30.23,29.91,15,4,18,0.06
2013-1-10,42.1,32.1,28.6,35.3,29.1,26.3,93,89,72,30.25,29.85,23,1,23,0.02
2013-1-11,59.2,52.0,42.1,54.2,47.8,35.1,95,86,74,29.85,29.59,26,7,26,0.66
2013-1-12,63.3,56.6,48.3,61.5,53.7,45.5,96,90,81,29.74,29.49,23,4,23,0.15
2013-1-13,63.9,51.4,32.9,61.3,49.1,29.8,97,92,87,29.84,29.40,31,7,31,0.78
2013-1-14,32.7,24.9,22.9,29.8,20.7,18.5,89,84,79,30.18,29.83,20,5,20,0.00
2013-1-15,31.2,27.5,22.6,25.5,22.0,18.1,84,80,73,30.12,29.83,15,5,15,0.00
2013-1-16,35.0,31.6,29.0,28.3,25.8,23.1,89,79,68,29.83,29.69,17,4,17,0.00
2013-1-17,40.4,34.3,24.3,32.1,26.7,16.8,82,73,66,30.12,29.80,20,5,20,0.00
2013-1-18,37.8,29.0,19.7,26.6,19.5,14.3,81,68,49,30.25,29.91,22,4,22,0.00
2013-1-19,52.4,40.7,35.5,33.0,28.0,25.8,69,61,46,29.92,29.67,31,11,33,0.00
2013-1-20,30.3,26.4,23.4,17.5,15.3,13.3,76,63,52,29.94,29.87,22,6,22,0.00
2013-1-21,24.0,18.1,9.4,16.0,10.2,0.1,82,71,62,29.96,29.81,28,10,28,0.00
2013-1-22,14.6,10.7,5.4,6.4,1.5,-1.1,77,66,55,30.12,29.96,20,7,22,0.00
2013-1-23,19.6,15.4,10.9,14.3,7.1,2.0,87,70,50,30.09,29.84,17,4,17,0.00
2013-1-24,22.0,16.9,9.9,16.7,9.2,5.2,88,72,60,30.33,29.86,21,4,21,0.00
2013-1-25,24.2,20.5,16.9,20.7,15.5,9.3,92,81,65,30.20,29.77,20,6,20,0.00
2013-1-26,29.2,24.9,21.1,22.3,19.5,15.6,92,80,72,30.18,29.83,17,5,17,0.01
2013-1-27,34.4,26.2,15.5,31.1,20.6,12.0,92,79,67,30.19,29.89,16,5,19,0.00
2013-1-28,50.1,44.7,33.3,48.6,43.0,31.2,96,94,91,29.89,29.72,21,6,21,0.46
2013-1-29,62.4,56.4,48.7,57.9,53.3,47.6,96,90,81,29.76,29.26,31,7,31,0.02
2013-1-30,65.2,52.0,31.7,59.3,47.7,26.5,95,85,74,29.27,28.97,34,11,34,0.67
2013-1-31,31.7,24.7,14.5,26.8,18.8,8.0,89,78,66,29.76,29.23,33,13,33,0.00